Regional Weather Roundup
Issued by NWS Sioux Falls, SD

Home | Current Version | Previous Version | Text Only | Print | Product List | Glossary Off
Versions: 1 2 3 4 5 6 7 8 9 10 11 12 13 14 15 16 17 18 19 20 21 22 23 24 25 26 27 28 29 30 31 32 33 34 35 36 37 38 39 40 41 42 43 44 45 46 47 48 49 50

000
ASUS43 KFSD 020110
RWRFSD

WEATHER ROUNDUP FOR SE SOUTH DAKOTA/SW MINNESOTA/NW IOWA
NATIONAL WEATHER SERVICE SIOUX FALLS SD
800 PM CDT SAT AUG 01 2015

NOTE: "FAIR" INDICATES FEW OR NO CLOUDS BELOW 12,000 FEET WITH NO
SIGNIFICANT WEATHER AND OR OBSTRUCTIONS TO VISIBILITY.


SDZ038>040-050-052>070-020200-
SOUTHEAST SOUTH DAKOTA

CITY           SKY/WX    TMP DP  RH WIND       PRES   REMARKS
BROOKINGS      PTCLDY    79  63  57 S9        29.83F
CHAMBERLAIN    CLEAR     84  62  46 SW10      29.83F
HURON          PTCLDY    86  64  47 SW8       29.77F
MADISON        FAIR      79  64  61 SW8       29.84F
MITCHELL       PTCLDY    86  64  47 SW9       29.81F
SIOUX FALLS    PTCLDY    81  63  54 SW9       29.84F
WINNER         FAIR      86  57  37 SW15      29.87F
YANKTON        CLEAR     84  63  48 S6        29.84F
$$

MNZ071-072-080-081-089-090-097-098-020200-
SOUTHWEST MINNESOTA

CITY           SKY/WX    TMP DP  RH WIND       PRES   REMARKS
FAIRMONT       CLEAR     79  61  53 SW7       29.85S
JACKSON        CLEAR     79  63  57 SW7       29.87S
LUVERNE        PTCLDY    79  68  69 SW5       29.85F
MARSHALL       CLEAR     79  63  57 S7        29.82S
MONTEVIDEO     CLEAR     82  66  57 SW8       29.78F
PIPESTONE      PTCLDY    75  64  69 SW7       29.84F
REDWOOD FALLS  CLEAR     81  68  64 S10       29.79F
TRACY          CLEAR     81  66  61 S8        29.82F
WINDOM         CLEAR     79  64  61 SW8       29.85S
WORTHINGTON    CLEAR     75  63  64 S10       29.86F
$$

IAZ001>003-012>014-020>022-031-032-NEZ013-014-SDZ071-020200-
NORTHWEST IOWA

CITY           SKY/WX    TMP DP  RH WIND       PRES   REMARKS
CHEROKEE       CLEAR     77  70  80 S8        29.88R
DENISON        CLEAR     79  72  78 S5        29.89S
ESTHERVILLE    CLEAR     76  66  71 SW6       29.86S
LE MARS        CLEAR     79  70  73 S9        29.88S
ORANGE CITY    CLEAR     75  68  78 S7        29.87F
SHELDON        CLEAR     77  66  69 S7        29.86S
SIOUX CITY     CLEAR     77  66  68 S10       29.88S
SPENCER        CLEAR     79  66  64 SW6       29.87F
STORM LAKE     CLEAR     75  70  83 S8        29.90R
$$

ABBREVIATIONS USED IN REMARKS
   TC - TEMPERATURE IN CELSIUS
  WCI - WIND CHILL INDEX
   HX - HEAT INDEX
  VSB - VISIBILITY



USA.gov is the U.S. government's official web portal to all federal, state and local government web resources and services.